Regional Weather Roundup
Issued by NWS

Home | Current Version | Previous Version | Graphics & Text | Print | Product List | Glossary Off
Versions: 1 2 3 4 5 6 7 8 9 10 11 12 13 14 15 16 17 18 19 20 21 22 23 24 25 26 27 28 29 30 31 32 33 34 35 36 37 38 39 40 41 42 43 44 45 46 47 48 49 50

000
ASUS43 KTOP 010108
RWRKS

WEATHER ROUNDUP FOR KANSAS
NATIONAL WEATHER SERVICE GOODLAND KS
700 PM CST SAT FEB 28 2015

NOTE:  "FAIR" INDICATES FEW OR NO CLOUDS BELOW 12,000 FEET WITH NO
SIGNIFICANT WEATHER AND/OR OBSTRUCTIONS TO VISIBILITY.

KSZ001>006-013>018-027>032-041>047-010200-
NORTHWEST KANSAS

CITY           SKY/WX    TMP DP  RH WIND       PRES   REMARKS
GOODLAND       CLOUDY    18  12  77 SE6       30.09R
HAYS           CLOUDY    19   9  63 SE7       30.24S
HILL CITY      CLOUDY    20  13  74 SE7       30.23R
RUSSELL        CLOUDY    20  15  81 SE7       30.25S
$$

KSZ061>065-074>080-084>089-010200-
SOUTHWEST KANSAS

CITY           SKY/WX    TMP DP  RH WIND       PRES   REMARKS
DODGE CITY     CLOUDY    20  14  77 SE9       30.18S
ELKHART          N/A     20  14  77 SE13        N/A  WCI   7
GARDEN CITY    CLOUDY    19  15  84 SE12      30.14R WCI   7
GREAT BEND     CLOUDY    19  10  68 SE6       30.27R
LIBERAL        CLOUDY    23  16  74 SE10      30.14S WCI  12
PRATT          CLOUDY    21  18  86 SE6       30.26S
$$

KSZ066>073-081>083-090>101-010200-
SOUTHEAST KANSAS

CITY           SKY/WX    TMP DP  RH WIND       PRES   REMARKS
CHANUTE        CLOUDY    23  22  96 E3        30.36R
COFFEYVILLE    MIX PCPN  25  23  92 NE5       30.36F FOG
HUTCHINSON     CLOUDY    20  14  77 E6        30.30R
MEDICINE LODGE   N/A     21  18  88 S5        30.28R
NEWTON         CLOUDY    21  12  68 E3        30.32R
PARSONS        CLOUDY    25  23  92 CALM      30.36F
WICHITA INTL   CLOUDY    23  18  81 SE5       30.32R
WICHITA JABRA  CLOUDY    22  18  85 E5        30.32R
WICHITA MCCONL CLOUDY    22  19  85 SE3       30.32R
WINFIELD       CLOUDY    24  22  91 SE5       30.34R
$$

KSZ007>012-019>026-033>040-048>060-102>105-010200-
NORTHEAST KANSAS

CITY           SKY/WX    TMP DP  RH WIND       PRES   REMARKS
CONCORDIA      CLOUDY    20  16  84 S6        30.31S
EMPORIA        CLOUDY    22  18  85 E3        30.35R
LAWRENCE       CLOUDY    22  18  85 SE5       30.39R
MANHATTAN      CLOUDY    24  18  77 S5        30.35S
MARYSVILLE     CLOUDY    23  19  86 SE5       30.34S
OLATHE IND     LGT SNOW  21  19  92 E3        30.38R FOG
OLATHE EXE     LGT SNOW  22  19  89 E3        30.37R FOG
SALINA         CLOUDY    23  16  74 SE6       30.32F
TOPEKA BILLARD CLOUDY    24  19  81 E3        30.39R
TOPEKA FORBES  CLOUDY    24  18  77 SE5       30.36S
$$



USA.gov is the U.S. government's official web portal to all federal, state and local government web resources and services.